Total_Precipitation_Accumulation
0.04 0.09 0.26 0.32 0.33 0.37 0.42 0.44 0.44 0.42 0.42 0.46 0.50 0.53 0.54 0.54 0.54 0.52 0.53 0.55 0.59 0.68 0.73 0.83 0.88 0.89 0.81 0.68 0.63 0.57 0.49 0.43 0.40 0.39 0.42 0.49 0.53 0.49 0.42 0.36 0.28 0.38 0.55
0.07 0.11 0.23 0.28 0.32 0.35 0.37 0.40 0.42 0.41 0.41 0.45 0.46 0.52 0.55 0.55 0.56 0.58 0.60 0.60 0.64 0.71 0.74 0.82 0.85 0.84 0.78 0.66 0.62 0.53 0.46 0.39 0.32 0.28 0.28 0.31 0.45 0.49 0.43 0.39 0.38 0.57 0.64
0.06 0.10 0.20 0.26 0.30 0.34 0.36 0.37 0.37 0.38 0.40 0.44 0.47 0.51 0.56 0.57 0.58 0.62 0.66 0.66 0.67 0.73 0.77 0.79 0.76 0.74 0.73 0.67 0.65 0.59 0.46 0.41 0.32 0.24 0.20 0.21 0.36 0.51 0.52 0.47 0.47 0.65 0.68
0.03 0.08 0.15 0.26 0.30 0.35 0.37 0.37 0.38 0.38 0.40 0.43 0.48 0.52 0.56 0.57 0.59 0.63 0.65 0.67 0.68 0.70 0.78 0.79 0.76 0.75 0.73 0.72 0.65 0.55 0.46 0.41 0.31 0.21 0.13 0.17 0.40 0.62 0.60 0.54 0.51 0.63 0.68
0.03 0.06 0.14 0.27 0.32 0.37 0.39 0.41 0.41 0.43 0.45 0.47 0.49 0.54 0.59 0.62 0.64 0.64 0.63 0.62 0.61 0.60 0.64 0.66 0.72 0.77 0.76 0.74 0.68 0.59 0.49 0.41 0.28 0.17 0.12 0.21 0.45 0.67 0.61 0.59 0.58 0.63 0.66
0.04 0.08 0.16 0.27 0.35 0.40 0.44 0.43 0.44 0.47 0.49 0.52 0.56 0.59 0.65 0.72 0.73 0.69 0.65 0.66 0.60 0.57 0.58 0.61 0.66 0.76 0.76 0.70 0.67 0.67 0.68 0.53 0.29 0.15 0.14 0.21 0.33 0.56 0.65 0.74 0.76 0.70 0.65
0.07 0.10 0.16 0.27 0.38 0.43 0.47 0.49 0.49 0.53 0.55 0.58 0.59 0.64 0.69 0.75 0.76 0.72 0.70 0.66 0.64 0.62 0.60 0.60 0.64 0.73 0.72 0.67 0.66 0.67 0.72 0.54 0.30 0.24 0.17 0.17 0.29 0.52 0.80 0.92 0.96 0.83 0.72
0.05 0.09 0.15 0.30 0.39 0.44 0.50 0.54 0.57 0.61 0.64 0.65 0.66 0.71 0.74 0.76 0.78 0.78 0.73 0.66 0.65 0.63 0.61 0.61 0.65 0.68 0.65 0.61 0.61 0.62 0.60 0.41 0.34 0.37 0.31 0.29 0.40 0.67 0.87 1.06 1.03 0.86 0.78
0.08 0.13 0.20 0.32 0.41 0.49 0.57 0.62 0.65 0.70 0.72 0.72 0.74 0.77 0.80 0.81 0.82 0.81 0.75 0.65 0.65 0.63 0.63 0.63 0.62 0.59 0.56 0.54 0.55 0.55 0.49 0.36 0.31 0.46 0.44 0.54 0.51 0.72 0.84 0.99 1.07 0.96 0.85
0.15 0.19 0.25 0.34 0.41 0.50 0.61 0.68 0.73 0.76 0.80 0.86 0.88 0.81 0.81 0.88 0.93 0.90 0.79 0.72 0.68 0.65 0.63 0.62 0.60 0.52 0.49 0.48 0.47 0.45 0.39 0.31 0.24 0.37 0.62 0.60 0.53 0.82 0.96 0.97 1.04 1.01 0.96
0.22 0.26 0.32 0.41 0.48 0.53 0.60 0.66 0.81 0.92 0.96 1.01 1.04 0.94 0.93 0.94 0.91 0.87 0.78 0.75 0.70 0.69 0.64 0.62 0.61 0.59 0.55 0.49 0.47 0.43 0.35 0.26 0.22 0.32 0.44 0.47 0.58 0.84 1.08 1.11 1.09 1.05 0.97
0.22 0.27 0.35 0.45 0.53 0.62 0.68 0.76 0.87 0.96 1.02 1.01 0.90 0.93 0.97 0.91 0.87 0.82 0.81 0.82 0.76 0.74 0.73 0.70 0.64 0.63 0.60 0.49 0.49 0.45 0.30 0.24 0.24 0.21 0.24 0.31 0.49 0.77 1.01 1.14 1.25 1.21 1.08
0.22 0.28 0.38 0.51 0.62 0.70 0.73 0.78 0.83 0.90 0.96 0.98 0.87 0.81 0.85 0.89 0.88 0.90 0.84 0.85 0.83 0.81 0.82 0.79 0.76 0.64 0.56 0.52 0.55 0.49 0.35 0.29 0.26 0.22 0.22 0.28 0.37 0.57 0.84 1.06 1.23 1.33 1.30
0.27 0.33 0.41 0.53 0.63 0.73 0.79 0.82 0.81 0.85 0.87 0.88 0.87 0.86 0.85 0.84 0.77 0.75 0.76 0.72 0.72 0.70 0.70 0.72 0.69 0.64 0.55 0.52 0.53 0.52 0.46 0.38 0.30 0.28 0.23 0.27 0.33 0.41 0.59 0.84 1.06 1.29 1.42
0.31 0.37 0.46 0.57 0.66 0.76 0.87 0.91 0.89 0.86 0.80 0.81 0.87 0.94 0.88 0.79 0.73 0.72 0.70 0.69 0.69 0.67 0.64 0.61 0.57 0.55 0.51 0.48 0.49 0.49 0.46 0.39 0.33 0.31 0.27 0.29 0.32 0.35 0.47 0.67 0.88 1.17 1.46
0.33 0.41 0.52 0.62 0.72 0.82 0.87 0.89 0.89 0.88 0.86 0.88 0.88 0.87 0.91 0.88 0.76 0.74 0.76 0.70 0.67 0.66 0.65 0.62 0.56 0.53 0.50 0.47 0.44 0.40 0.41 0.41 0.38 0.37 0.34 0.34 0.33 0.33 0.39 0.56 0.76 1.00 1.34
0.34 0.45 0.56 0.63 0.77 0.88 0.87 0.93 0.94 0.92 0.93 0.95 0.92 0.90 0.94 0.94 0.92 0.83 0.78 0.74 0.69 0.69 0.70 0.69 0.65 0.56 0.53 0.48 0.44 0.40 0.36 0.35 0.34 0.37 0.39 0.38 0.38 0.36 0.37 0.46 0.61 0.82 1.06
0.39 0.46 0.57 0.67 0.75 0.86 0.90 0.93 0.98 0.99 0.97 0.99 1.03 1.03 1.00 1.01 1.01 1.00 0.90 0.79 0.72 0.74 0.76 0.78 0.75 0.68 0.58 0.53 0.50 0.44 0.38 0.35 0.33 0.32 0.34 0.37 0.40 0.40 0.40 0.43 0.49 0.63 0.85
0.41 0.48 0.58 0.69 0.73 0.82 0.96 0.96 0.98 1.03 1.06 1.07 1.12 1.17 1.10 1.06 1.06 1.08 1.08 0.99 0.86 0.83 0.79 0.77 0.74 0.71 0.66 0.60 0.55 0.52 0.48 0.42 0.37 0.36 0.33 0.31 0.33 0.39 0.42 0.44 0.48 0.53 0.68
0.45 0.50 0.59 0.69 0.80 0.87 1.04 1.14 1.09 1.10 1.13 1.15 1.15 1.13 1.15 1.17 1.08 1.02 1.08 1.12 1.04 0.94 0.88 0.81 0.75 0.68 0.63 0.61 0.62 0.61 0.54 0.49 0.46 0.42 0.38 0.34 0.31 0.33 0.39 0.43 0.47 0.49 0.56
0.48 0.52 0.60 0.68 0.81 0.96 1.06 1.20 1.15 1.09 1.12 1.14 1.10 1.09 1.08 1.15 1.17 1.06 0.99 1.02 1.04 0.98 0.89 0.84 0.81 0.79 0.74 0.68 0.72 0.77 0.72 0.59 0.52 0.48 0.45 0.43 0.39 0.35 0.36 0.40 0.46 0.51 0.54
0.48 0.53 0.60 0.70 0.80 0.89 0.98 1.07 1.15 1.12 1.13 1.20 1.16 1.13 1.10 1.09 1.13 1.15 1.05 0.97 0.93 0.93 0.92 0.86 0.84 0.83 0.83 0.77 0.75 0.82 0.84 0.81 0.64 0.48 0.44 0.44 0.43 0.42 0.41 0.40 0.42 0.49 0.57
0.48 0.54 0.59 0.70 0.81 0.88 1.04 1.14 1.24 1.37 1.35 1.35 1.35 1.24 1.14 1.10 1.08 1.08 1.09 1.03 0.96 0.89 0.89 0.86 0.81 0.79 0.80 0.76 0.68 0.82 0.90 0.78 0.62 0.52 0.44 0.39 0.38 0.41 0.40 0.41 0.41 0.43 0.50
0.44 0.56 0.63 0.74 0.83 0.87 1.07 1.22 1.18 1.27 1.28 1.19 1.13 1.19 1.16 1.11 1.08 1.04 1.03 1.01 1.02 0.95 0.84 0.81 0.81 0.81 0.83 0.83 0.73 0.65 0.68 0.68 0.71 0.61 0.51 0.46 0.42 0.41 0.40 0.40 0.41 0.40 0.44
0.38 0.52 0.64 0.77 0.87 0.91 0.99 1.19 1.22 1.16 1.14 1.14 1.16 1.15 1.19 1.19 1.13 1.05 1.01 0.98 0.96 0.94 0.85 0.79 0.80 0.82 0.84 0.84 0.80 0.70 0.64 0.56 0.56 0.67 0.56 0.49 0.52 0.49 0.46 0.46 0.45 0.44 0.44
0.38 0.49 0.60 0.73 0.85 0.92 0.94 1.06 1.22 1.17 1.12 1.11 1.16 1.19 1.19 1.23 1.20 1.10 1.00 0.95 0.89 0.85 0.83 0.76 0.71 0.73 0.76 0.76 0.74 0.72 0.73 0.70 0.60 0.62 0.60 0.47 0.46 0.48 0.49 0.53 0.55 0.53 0.51